Weather in Bordighera

Italy     43°47′05″N   7°39′33″E
temp.,
°C
wind,
m/s
gust,
m/s
humid.,
%
clouds,
%
prec.,
mm/h
press.,
hPa
HPBL,
m
11 may, tue
tue1123:00+16ne788777 1.0 1013166
02:00+15e5596100 5.0 1013197
05:00+16ene6794100 4.0 1010288
08:00+16ssw2390100 7.6 101075
11:00+15sw6788100 3.5 1010297
14:00+16ssw4584100 3.6 1009212
17:00+16wsw68802 0.6 1008411
20:00+16sw118211 0.9 1007142
12 may, wed
wed1223:00+16ne56755 0.0 1007160
02:00+15nne34700 0.0 1007168
05:00+16wnw34693 0.0 1008206
08:00+15w89815 0.0 1009527
11:00+15w12795 0.0 1009145
14:00+16ssw22731 0.1 1009406
17:00+18sw64612 0.0 1007372
20:00+18wsw68665 0.0 1006155
13 may, thu
thu1323:00+16ene6776100 0.0 1007454
02:00+15ne33745 0.1 1006185
05:00+15wnw34735 0.1 1006359
08:00+15wnw34730 0.1 1006457
11:00+15se22761 0.1 1006319
14:00+15ese22751 0.2 1005413
17:00+16ene11725 0.4 1004208
20:00+15ene67805 1.0 1004380
14 may, fri
fri1423:00+15nne33725 0.2 1006146
02:00+15wnw1270100 0.2 1007318
05:00+15wnw0172100 0.0 1007301
08:00+15nne007384 0.0 1007362
11:00+15ese337617 0.1 1009378
14:00+15se2273100 0.3 1009464
17:00+16s216325 0.2 1008452
20:00+16e44678 0.3 1008505
15 may, sat
sat1523:00+15ene557748 0.3 1010495
02:00+15ene33715 0.5 1010410
05:00+14nw336519 0.0 1011177
08:00+15w3460100 0.0 1012326
11:00+15sw5572100 0.0 1013292
14:00+15sw5575100 0.0 1013454
17:00+16se1166100 0.0 1012300
20:00+16ne226882 0.0 1010128